Regional Weather Roundup
Issued by NWS

Home | Current Version | Previous Version | Graphics & Text | Print | Product List | Glossary On
Versions: 1 2 3 4 5 6 7 8 9 10 11 12 13 14 15 16 17 18 19 20 21 22 23 24 25 26 27 28 29 30 31 32 33 34 35 36 37 38 39 40 41 42 43 44 45 46 47 48 49 50
000
ASUS44 KMEG 281500
RWRTN
TENNESSEE HOURLY STATE WEATHER ROUNDUP
NATIONAL WEATHER SERVICE MEMPHIS TN
1000 AM CDT SAT MAR 28 2015

TNZ002-004-019-021-049-052-054-088>092-281600-
WEST TENNESSEE

CITY           SKY/WX    TMP DP  RH WIND       PRES   REMARKS
MEMPHIS INTL   CLOUDY    40  20  44 SE7       30.31R
NWS MEMPHIS      N/A     39 N/A N/A MISG        N/A
JACKSON        PTSUNNY   40  22  48 VRB5      30.30R
DYERSBURG      MOSUNNY   37  16  41 N3        30.33R
PARIS          SUNNY     34  14  44 VRB5      30.30R WCI  30
LEXINGTON      SUNNY     36  16  44 NE6       30.28R WCI  31
SAVANNAH       SUNNY     39  21  48 VRB5      30.29R
$$

TNZ008-025-027-028-033-062-065-066-281600-
NORTH MIDDLE TENNESSEE

CITY           SKY/WX    TMP DP  RH WIND       PRES   REMARKS
NASHVILLE      MOSUNNY   35  12  38 NE9       30.28R WCI  28
CLARKSVILLE    SUNNY     34  18  52 N9        30.30R WCI  27
COOKEVILLE     SUNNY     34  18  51 VRB5      30.20R WCI  30
CROSSVILLE     SUNNY     31  15  52 MISG      30.16R
$$

TNZ061-075-076-078-094-096-097-281600-
SOUTH MIDDLE TENNESSEE

CITY           SKY/WX    TMP DP  RH WIND       PRES   REMARKS
FAYETTEVILLE   SUNNY     34  16  47 NE9       30.22R WCI  26
TULLAHOMA      SUNNY     34  19  55 CALM      30.22R
WINCHESTER     SUNNY     34  19  55 NE8       30.23R WCI  27
COLUMBIA       SUNNY     34  21  60 CALM      30.25R
SHELBYVILLE    SUNNY     34  23  64 NE7       30.25R WCI  28
$$

TNZ017-018-042-046-047-281600-
NORTHEAST TENNESSEE

CITY           SKY/WX    TMP DP  RH WIND       PRES   REMARKS
TRI CITIES     PTSUNNY   31  13  47 NW10      30.14R WCI  22
ELIZABETHTON   PTSUNNY   30  10  43 W14       30.11S WCI  20
$$

TNZ012-013-036-069-073-074-281600-
CENTRAL EAST TENNESSEE

CITY           SKY/WX    TMP DP  RH WIND       PRES   REMARKS
KNOXVILLE      MOSUNNY   35  17  47 E6        30.18R WCI  30
OAK RIDGE      SUNNY     37  16  42 VRB5      30.21R WCI  33
$$

TNZ083-085-099-281600-
SOUTHEAST TENNESSEE

CITY           SKY/WX    TMP DP  RH WIND       PRES   REMARKS
CHATTANOOGA    MOSUNNY   39  17  41 N8        30.21R WCI  33
$$

SKY/WX REPORTED AS FAIR MEANS FEW OR NO CLOUDS BELOW
12 THOUSAND FEET.



USA.gov is the U.S. government's official web portal to all federal, state and local government web resources and services.